29.2.2020 Kaasujalka ralli

Tulokset  Keskeyttäneet (34)  AT-pisteet (0)  Tilastot Lähtöön oikeutettujen lista CSV


 << EK4 EK6 >> Yleiskilpailun tulos
Kaasujalka ralli
29.2.2020
EK 5, LUOKKATULOKSET
R-Rallicup
Yellow racing team
Ruutupojat Oy
 
Luokka 1 , Historic gr2,4, a alle 1350 60-90 vm. 2wd , Lähti:6
EK5, 5.7km, nopein: 83.6km/h
SijNroNimiTulosEro
1109Ari Liimatainen €4:05,6
2111Janne Solatie €4:21,015,4
3113Vesa Båga4:43,237,6
450Timo Hytönen7:49,53:43,9
Tulos EK 5 jälkeen
SijNroNimiTulosEro
1109Ari Liimatainen €11:27,7
2111Janne Solatie €12:06,5 38,8
3113Vesa Båga13:17,0 1:49,3
450Timo Hytönen20:00,1 8:32,4


Keskeyttäneet: 110, Jari Päivärinta €, 4A, Tekninen syy  -   114, Sami Kauppinen, 5B, Ulosajo
 
Luokka 3 , F, A, HR alle 1650 2wd , Lähti:11
EK5, 5.7km, nopein: 92.2km/h
SijNroNimiTulosEro
1100Marko Mansikkamäki €3:42,6
299Juho Nykänen €3:42,90,3
3108Raimo Kovanen3:46,33,7
498Mikko Kurkela €3:48,15,5
5101Tomi Saari €3:49,46,8
6102Sami Jokinen €3:50,78,1
7105Pasi Martikainen4:00,117,5
8107Santtu Pajunpää4:03,020,4
Tulos EK 5 jälkeen
SijNroNimiTulosEro
199Juho Nykänen €10:08,6
2100Marko Mansikkamäki €10:10,1 1,5
398Mikko Kurkela €10:18,7 10,1
4108Raimo Kovanen10:18,8 10,2
5101Tomi Saari €10:30,3 21,7
6102Sami Jokinen €10:33,3 24,7
7105Pasi Martikainen10:42,9 34,3
8107Santtu Pajunpää11:15,9 1:07,3


Keskeyttäneet: 103, Jani Kuivas €, 4A, Tekninen syy  -   104, Oskari Jauhiainen €, 5A, Tekninen syy  -   106, Janne Harju, 5A, Tekninen syy
 
Luokka 4 , F, A, HR alle 2100 2wd , Lähti:16
EK5, 5.7km, nopein: 91.6km/h
SijNroNimiTulosEro
183Miko Jalava €3:44,1
284Kyösti Kotamäki €3:45,00,9
388Petteri Paavilainen3:47,93,8
495Olli Rämänen3:48,14,0
597Lasse Lahikainen3:53,39,2
686Sami Sabell3:53,59,4
796Henry Isakoff3:53,79,6
887Mika Kylmälä3:58,214,1
991Timo Siik3:58,214,1
1090Mirco Ilminen4:06,622,5
1185Jussi Kananoja €4:15,831,7
1292juha flyktman4:21,837,7
1394Pasi Laitinen13:27,29:43,1
Tulos EK 5 jälkeen
SijNroNimiTulosEro
184Kyösti Kotamäki €10:25,7
295Olli Rämänen10:26,0 0,3
397Lasse Lahikainen10:30,6 4,9
483Miko Jalava €10:31,7 6,0
588Petteri Paavilainen10:31,7 6,0
686Sami Sabell10:46,4 20,7
796Henry Isakoff10:54,1 28,4
891Timo Siik11:00,9 35,2
987Mika Kylmälä11:06,4 40,7
1090Mirco Ilminen11:23,7 58,0
1185Jussi Kananoja €11:49,1 1:23,4
1292juha flyktman11:53,6 1:27,9
1394Pasi Laitinen20:20,0 9:54,3


Keskeyttäneet: 82, Esa Ketomäki €, 4A, Tekninen syy  -   89, Teemu Rajasto, 4A, Tekninen syy  -   93, Joonas Ahokas, 4A, Ulosajo
 
Luokka 5 , F, A, HR yli 2100 2wd , Lähti:10
EK5, 5.7km, nopein: 88.3km/h
SijNroNimiTulosEro
172Jani Rihu €3:52,5
274Sami Tikkanen €3:58,25,7
375Pasi Hirvikoski €3:59,57,0
477Markus Minkkilä4:04,011,5
576Laurell Henry4:23,731,2
671Sami Ahonen €5:01,81:09,3
Tulos EK 5 jälkeen
SijNroNimiTulosEro
172Jani Rihu €10:41,9
275Pasi Hirvikoski €10:55,5 13,6
374Sami Tikkanen €11:06,3 24,4
477Markus Minkkilä11:08,2 26,3
571Sami Ahonen €11:36,1 54,2
676Laurell Henry12:10,5 1:28,6


Keskeyttäneet: 73, Antti Rintamäki €, 1B, Tekninen syy  -   78, Hannu Hautakoski, 5B, Ulosajo  -   79, Esa Puupponen, 4A, Tekninen syy  -   81, Niko Konkola, 4A, Tekninen syy
 
Luokka 6 , Senior 50 v. cc vapaa 2wd , Lähti:16
EK5, 5.7km, nopein: 91.9km/h
SijNroNimiTulosEro
153Petteri Rantanen €3:43,4
265Timo Nousiainen3:43,50,1
356Markku Tuoriniemi €3:44,20,8
463Christer Sundholm3:54,711,3
558Pasi Kämäräinen €3:55,311,9
654Pauli Sinkkonen €4:00,417,0
764juha kaipainen4:03,820,4
857Jari Muhonen €4:10,427,0
960Petri Heikkilä €4:11,928,5
1066Ari Ijäs4:12,128,7
1159Ilpo Saari €4:12,729,3
1270Rauno Jaakkola4:22,739,3
1367Jorma Isotalo4:33,249,8
Tulos EK 5 jälkeen
SijNroNimiTulosEro
153Petteri Rantanen €10:17,2
256Markku Tuoriniemi €10:24,0 6,8
365Timo Nousiainen10:30,0 12,8
454Pauli Sinkkonen €10:34,3 17,1
558Pasi Kämäräinen €10:45,5 28,3
664juha kaipainen11:10,6 53,4
763Christer Sundholm11:16,2 59,0
857Jari Muhonen €11:25,8 1:08,6
960Petri Heikkilä €11:32,3 1:15,1
1059Ilpo Saari €11:46,0 1:28,8
1166Ari Ijäs11:52,6 1:35,4
1270Rauno Jaakkola12:09,8 1:52,6
1367Jorma Isotalo12:32,3 2:15,1


Keskeyttäneet: 55, Timo Ahonen €, 4B, Ulosajo  -   68, Tauno Rantala, 1B, Tekninen syy  -   69, Pekka Mustanoja, 5B, Tekninen syy
 
Luokka 7 , V-1600 alle 1650 gr1, N ja V1600 2wd , Lähti:10
EK5, 5.7km, nopein: 87.5km/h
SijNroNimiTulosEro
143Joonas Tonteri €3:54,6
246Ari Pentinmäki3:55,50,9
344Timo Karhinen €4:12,017,4
451Markus Väätänen4:14,720,1
552Petri Riihimäki4:16,722,1
647Anssi Pihala4:18,523,9
742Janne Rissanen €4:19,725,1
848Jan Andersin4:37,743,1
Tulos EK 5 jälkeen
SijNroNimiTulosEro
143Joonas Tonteri €10:45,9
246Ari Pentinmäki10:56,7 10,8
344Timo Karhinen €11:24,4 38,5
442Janne Rissanen €11:39,1 53,2
551Markus Väätänen11:46,9 1:01,0
647Anssi Pihala11:55,2 1:09,3
752Petri Riihimäki12:02,3 1:16,4
848Jan Andersin12:56,5 2:10,6


Keskeyttäneet: 45, Ilkka Manier €, 5B, Ulosajo  -   49, Markku Hytönen, 4B, Tekninen syy
 
Luokka 8 , V-2000 alle 2050 gr1, N, V2000 2wd , Lähti:5
EK5, 5.7km, nopein: 86.1km/h
SijNroNimiTulosEro
137Kari Mutkala €3:58,4
239Rami Härkönen €4:07,28,8
338Mikko Viitanen €4:12,213,8
440Kristian Pannula €4:33,835,4
Tulos EK 5 jälkeen
SijNroNimiTulosEro
137Kari Mutkala €10:51,7
238Mikko Viitanen €11:00,9 9,2
339Rami Härkönen €11:31,9 40,2
440Kristian Pannula €11:55,5 1:03,8


Keskeyttäneet: 41, Toni Ketomäki, 5B, Ulosajo
 
Luokka 9 , Nuoret V-1600 2wd , Lähti:6
EK5, 5.7km, nopein: 81km/h
SijNroNimiTulosEro
1115Tomi Tiilikainen €4:13,3
2117Timo Koskinen €4:15,21,9
3119Ville Wikström4:22,28,9
4116Aatu Hirvikoski €4:23,410,1
5120Jooa Iivari4:28,715,4
6118Luka Manninen4:36,423,1
Tulos EK 5 jälkeen
SijNroNimiTulosEro
1115Tomi Tiilikainen €11:47,1
2117Timo Koskinen €11:50,2 3,1
3119Ville Wikström12:03,9 16,8
4116Aatu Hirvikoski €12:23,1 36,0
5120Jooa Iivari17:21,9 5:34,8
6118Luka Manninen17:40,9 5:53,8

 
Luokka 11 , 4wd cc vapaa Kaikki ikäkaudet , Lähti:4
EK5, 5.7km, nopein: 93km/h
SijNroNimiTulosEro
125sami tuohinen3:40,7
226Henri Alahuhta3:52,311,6
327Timo Takala4:00,519,8
Tulos EK 5 jälkeen
SijNroNimiTulosEro
125sami tuohinen10:07,7
226Henri Alahuhta10:56,4 48,7
327Timo Takala10:56,6 48,9


Keskeyttäneet: 23, Tatu Soisalo €, 5B, Tekninen syy
 
Luokka 12 , 4 wd A, Fin-R cc vapaa Nuotti , Lähti:5
EK5, 5.7km, nopein: 91.8km/h
SijNroNimiTulosEro
13Matti Latvala3:43,6
22Tommi Rimpeläinen3:45,92,3
31Aatu Tunturi3:59,415,8
44Veli-Matti Saarelainen16:35,812:52,2
Tulos EK 5 jälkeen
SijNroNimiTulosEro
13Matti Latvala9:55,3
22Tommi Rimpeläinen10:20,5 25,2
31Aatu Tunturi10:49,8 54,5
44Veli-Matti Saarelainen22:46,4 12:51,1


Keskeyttäneet: 5, Mikko Suvinen, 5B, Ulosajo
 
Luokka 15 , F, A, HR yli 1650 2wd Nuotti , Lähti:16
EK5, 5.7km, nopein: 91.7km/h
SijNroNimiTulosEro
16Max Karhapää €3:43,8
219Marko Kinnunen3:45,51,7
314Eemil Mielityinen €3:48,64,8
421Tommi Hannuksela3:49,15,3
511Benjamin Korhola €3:51,27,4
620Ville Jauhiainen3:55,611,8
710Sami Saari €3:57,413,6
817Jussi Soikkeli3:58,815,0
922Vesa Rissanen4:00,416,6
1012Roman Prokhorov €4:05,421,6
118Toni Piiroinen €4:06,522,7
1218Tuomo Laitila4:09,625,8
137Markku Hakkarainen €4:14,730,9
1415Juha Niskanen4:19,435,6
1516Ari Halmela4:20,636,8
1613Kimmo Johansson €5:07,81:24,0
Tulos EK 5 jälkeen
SijNroNimiTulosEro
16Max Karhapää €10:07,2
219Marko Kinnunen10:13,5 6,3
311Benjamin Korhola €10:29,0 21,8
421Tommi Hannuksela10:32,0 24,8
510Sami Saari €10:52,4 45,2
620Ville Jauhiainen10:54,7 47,5
712Roman Prokhorov €10:58,2 51,0
817Jussi Soikkeli11:02,6 55,4
922Vesa Rissanen11:03,1 55,9
1018Tuomo Laitila11:03,8 56,6
118Toni Piiroinen €11:19,3 1:12,1
127Markku Hakkarainen €11:51,4 1:44,2
1315Juha Niskanen11:56,3 1:49,1
1416Ari Halmela12:07,2 2:00,0
1513Kimmo Johansson €14:40,9 4:33,7
1614Eemil Mielityinen €18:44,4 8:37,2

 
Luokka 17 , BMW orginal 2wd , Lähti:4
EK5, 5.7km, nopein: 88.7km/h
SijNroNimiTulosEro
133Ville Pulkkinen €3:51,3
234Tero Karppi €3:54,63,3
335Sami Hakonen €3:58,26,9
436Kimmo Vilenius4:16,625,3
Tulos EK 5 jälkeen
SijNroNimiTulosEro
135Sami Hakonen €10:46,0
234Tero Karppi €10:50,9 4,9
333Ville Pulkkinen €11:05,2 19,2
436Kimmo Vilenius11:59,9 1:13,9

 
Luokka 20 , Proto cc vapaa 2wd turbot , Lähti:5
EK5, 5.7km, nopein: 88.9km/h
SijNroNimiTulosEro
129Kari Herronen €3:50,7
228Jarno Puupponen €3:51,40,7
330Petri Katainen €3:53,42,7
431Aki Suni4:17,026,3
532Tomi Mäkinen4:36,145,4
Tulos EK 5 jälkeen
SijNroNimiTulosEro
128Jarno Puupponen €10:34,5
229Kari Herronen €10:45,9 11,4
330Petri Katainen €10:46,9 12,4
432Tomi Mäkinen11:28,7 54,2
531Aki Suni12:04,0 1:29,5